Theta_e
306 306 305 305 305 305 304 305 305 306 306 305 305 304 304 304 304 304 305 306 307 308 309 308 307 306 305 305 306 307 308 308 307 308 309 309 308 309 309 309 309 310 313 317 317 317 317 317 316 317 318 318 318 318 318 319 319 319 320 319 320 320 319 317 317 316 315 314 313
306 306 306 306 306 305 305 305 305 305 305 305 305 305 305 305 304 304 305 305 307 308 309 309 308 306 305 306 307 307 308 308 307 307 308 308 308 309 309 309 309 310 313 317 317 317 317 317 316 317 317 317 317 317 317 318 318 319 320 320 320 319 319 317 316 315 314 313 312
305 305 305 305 305 305 304 305 305 304 304 305 306 306 305 305 305 305 305 305 307 308 309 310 308 307 306 307 308 308 308 307 306 307 308 308 308 308 309 309 309 310 313 317 317 317 317 316 317 317 317 317 316 316 316 316 317 318 320 320 319 319 318 316 315 314 313 312 311
304 304 304 304 304 304 304 304 304 304 305 306 306 306 305 305 305 305 305 305 307 308 309 309 307 306 306 308 308 308 308 307 307 307 307 308 308 308 308 309 309 310 313 317 317 317 316 316 317 317 317 315 315 315 315 316 317 317 319 320 319 318 316 315 314 313 313 311 311
305 304 304 304 304 304 304 304 304 304 305 306 306 305 305 305 305 305 304 305 307 309 309 309 307 306 306 308 309 308 308 308 308 308 308 309 308 308 308 309 308 309 312 317 317 317 316 316 317 316 316 315 316 316 316 316 317 317 318 319 318 317 316 314 313 313 312 311 310
304 303 303 304 305 305 304 304 303 304 305 306 305 305 305 305 305 304 304 305 308 309 309 309 307 307 307 308 308 307 307 307 308 308 309 308 308 308 308 309 308 309 312 317 317 317 317 317 317 316 315 316 315 315 316 317 317 318 318 317 316 316 314 313 313 312 311 309 309
304 304 304 305 305 304 303 303 304 305 305 306 305 304 304 304 304 303 304 306 308 309 309 309 308 307 307 308 307 307 306 306 306 307 308 308 308 308 308 308 308 309 313 317 317 317 317 317 316 315 315 316 317 316 316 317 318 318 317 315 315 314 313 312 311 311 310 309 308
306 305 305 304 304 304 304 304 304 305 305 305 304 304 303 303 303 303 305 308 309 309 309 308 307 308 308 309 308 307 306 305 306 306 308 309 308 308 307 308 307 310 314 318 317 317 317 317 316 315 315 316 317 318 317 317 317 316 315 313 313 313 312 311 311 310 309 308 308
305 305 304 303 303 304 305 305 305 305 305 304 304 303 303 303 303 305 307 308 309 309 308 307 307 308 309 309 309 308 307 306 305 306 307 308 308 307 307 307 308 311 315 318 317 317 316 316 315 315 316 316 318 319 319 317 316 314 313 312 311 311 311 311 310 309 309 308 308
303 304 304 304 304 305 305 306 305 305 304 304 303 303 303 304 305 306 308 309 309 308 308 308 308 308 308 309 309 308 308 307 306 305 306 307 308 308 308 308 309 313 316 318 317 317 316 316 315 315 316 316 318 318 317 315 314 312 312 311 311 310 309 309 309 309 309 308 307
302 304 305 305 305 306 306 306 306 305 304 303 303 303 304 305 307 308 309 309 308 307 308 310 309 308 307 308 308 308 308 308 306 305 306 307 308 308 308 309 312 314 317 317 317 317 316 316 316 316 317 318 317 316 315 314 312 311 311 311 310 309 309 309 309 309 309 308 307
302 304 306 307 306 306 306 306 305 304 304 303 302 303 304 307 308 309 309 308 306 306 307 310 309 308 307 308 308 309 310 308 306 305 306 308 309 309 309 311 314 316 317 317 317 316 316 316 316 316 316 316 316 315 314 312 311 311 310 309 309 309 309 308 309 309 309 308 308
302 304 305 307 306 306 305 305 304 303 303 303 303 304 305 307 307 308 307 306 305 306 307 310 310 309 308 308 310 311 311 308 306 306 308 309 309 310 311 313 315 317 317 317 316 316 316 316 316 316 315 315 314 313 312 311 311 310 309 309 309 309 308 308 309 309 309 308 307
302 303 304 305 305 304 304 303 303 303 303 303 304 305 306 306 306 307 307 306 306 307 309 312 312 311 310 311 312 312 310 307 307 307 309 309 310 311 313 315 316 317 317 316 316 315 315 316 315 314 314 313 313 312 312 311 311 310 309 309 308 308 308 308 308 308 307 307 306
301 302 303 303 303 303 303 303 304 304 304 305 305 306 305 305 306 308 308 309 309 309 310 312 311 311 312 313 312 310 308 307 308 309 310 309 311 313 314 315 316 316 316 315 315 315 315 315 314 314 313 312 312 312 312 311 311 310 309 309 309 308 308 308 308 307 307 306 305
300 300 301 302 302 303 303 304 305 305 305 305 305 305 304 305 307 309 310 310 310 311 311 312 311 311 312 313 311 310 309 309 310 311 311 311 312 314 315 315 315 315 315 314 314 315 315 315 314 313 312 312 311 311 311 311 310 309 309 309 308 308 308 307 307 307 306 305 305
300 301 302 303 303 304 305 305 305 305 305 305 305 305 305 307 309 310 311 311 311 311 311 312 312 312 313 313 312 311 311 312 312 312 313 313 314 315 315 315 315 315 315 314 314 314 314 314 313 312 312 312 311 311 310 310 309 309 308 308 308 307 307 307 306 306 305 305 305
301 302 304 305 305 305 305 305 305 305 304 305 306 307 308 309 310 311 311 311 311 311 311 311 312 313 313 312 312 312 312 313 313 313 314 314 314 314 315 314 315 315 315 314 314 313 313 313 313 312 312 311 311 310 309 309 309 308 307 307 307 307 306 306 306 306 305 305 305
302 303 304 304 304 305 305 306 305 305 305 306 307 309 310 311 311 311 310 310 311 311 311 311 312 312 311 310 309 311 313 314 314 314 314 314 314 314 314 314 315 314 314 314 313 312 312 312 312 312 311 310 310 309 309 309 308 307 307 307 306 305 305 305 305 305 305 305 304
305 305 304 304 304 305 306 307 306 306 307 308 309 310 311 311 311 310 309 308 309 309 310 310 310 310 309 308 308 310 313 314 314 314 314 314 314 314 314 314 314 314 314 313 312 312 312 311 311 310 310 309 309 308 308 307 307 306 305 304 304 303 303 302 302 301 301 301 300
306 306 307 307 306 307 307 308 309 309 309 309 309 309 310 311 310 309 308 309 309 309 309 310 310 309 308 308 308 310 313 314 314 314 314 314 314 314 314 314 314 313 313 312 312 312 311 311 310 310 309 309 308 307 306 305 304 303 302 301 300 299 298 298 298 297 297 296 296
306 307 308 308 308 308 309 309 309 309 309 309 309 309 309 309 309 308 308 309 310 310 310 310 310 309 309 309 310 312 313 313 313 313 314 314 314 314 313 313 312 312 312 311 311 310 310 310 309 309 308 307 306 305 304 303 301 300 298 297 297 296 296 296 296 295 295 294 294
305 307 307 308 308 308 308 308 308 308 308 308 308 309 309 308 308 308 308 309 309 310 310 310 311 311 312 312 313 313 313 313 313 313 313 313 313 312 312 312 311 310 310 309 309 309 308 308 307 307 307 306 305 304 302 301 299 298 296 296 295 295 295 295 295 295 294 294 294
305 306 307 307 307 307 307 307 307 307 307 307 307 308 308 308 308 308 309 309 310 311 311 312 313 313 313 313 313 313 312 311 311 311 311 311 311 311 310 310 309 309 309 309 308 308 307 306 306 305 305 304 303 302 301 299 298 297 296 295 295 295 294 294 294 294 294 295 295
307 307 307 307 307 307 307 307 306 306 306 306 307 307 308 308 308 309 310 310 311 312 312 312 313 313 313 312 312 312 311 310 309 309 309 309 309 309 309 308 308 307 307 307 308 308 307 306 305 304 303 302 301 300 299 298 298 297 297 296 295 295 294 294 294 294 295 295 296
307 307 307 307 307 307 307 306 306 306 306 307 307 308 308 309 310 310 311 311 311 311 311 311 311 311 311 310 310 310 309 309 308 307 307 307 307 307 307 307 307 307 307 307 307 307 307 306 305 304 302 300 299 298 297 297 297 297 296 296 295 294 294 293 294 294 295 295 296
306 306 306 307 307 307 307 307 307 307 306 307 307 308 309 310 311 311 310 310 309 309 309 309 309 309 309 308 308 308 307 307 307 306 306 306 305 305 305 305 305 306 306 307 307 307 306 305 304 302 301 299 297 297 296 296 295 295 295 295 295 294 294 294 294 294 295 295 295
306 306 306 307 307 308 308 308 307 307 307 308 309 310 310 310 309 309 309 308 308 308 308 308 308 308 308 307 306 306 306 306 306 305 305 305 304 304 305 305 305 305 306 307 306 306 305 304 303 302 300 299 297 296 296 295 295 294 295 294 294 295 295 295 295 295 295 295 294
307 307 307 308 308 308 309 309 309 308 309 310 310 310 308 308 308 308 308 307 307 307 307 307 307 306 306 305 305 305 305 305 305 304 304 304 304 304 304 304 304 305 305 306 305 305 304 304 303 302 301 299 297 296 296 295 295 295 295 296 296 296 295 295 295 295 294 293 293
308 308 308 308 308 308 308 309 309 309 309 309 308 308 307 307 306 306 306 306 306 306 306 306 305 305 304 304 304 304 304 304 304 304 303 303 303 303 303 303 303 303 304 305 304 304 303 303 302 301 301 300 298 297 296 296 296 296 296 296 296 295 295 294 294 293 293 293 292
306 306 306 306 306 306 306 307 307 307 307 307 307 307 306 306 305 305 305 304 304 305 305 304 304 303 303 303 303 303 303 303 303 303 303 302 302 302 302 302 302 303 303 304 303 303 303 302 302 301 301 300 299 298 297 296 296 295 294 293 293 292 292 292 291 291 291 291 290
306 306 306 305 305 305 306 306 306 306 306 306 306 305 305 305 304 304 304 304 304 304 304 303 303 303 303 303 303 302 302 302 302 302 302 301 301 301 301 301 301 302 303 303 303 303 302 302 301 301 300 299 297 296 295 294 293 292 291 290 290 290 289 289 289 289 289 289 289
306 306 305 305 305 305 305 305 305 305 305 305 305 305 304 304 304 304 304 304 304 304 303 303 303 302 302 302 302 302 302 302 302 302 302 301 301 301 301 301 301 302 302 303 302 302 302 301 300 300 299 298 296 294 293 292 291 290 289 289 288 288 288 288 288 288 288 288 288
306 305 305 304 304 304 304 304 304 304 304 304 304 304 304 304 304 304 304 304 304 304 303 303 303 302 302 302 302 302 302 302 301 301 301 301 301 301 301 300 301 301 302 302 302 301 301 300 299 299 298 297 294 293 292 291 290 289 289 289 288 288 288 288 288 288 288 288 288
305 305 304 304 304 304 304 304 304 304 303 303 303 303 304 304 303 303 303 303 303 303 303 303 303 303 302 302 302 302 301 301 301 301 301 301 300 300 300 300 300 301 302 302 301 301 300 300 299 298 297 295 293 292 291 291 290 289 289 289 289 289 289 289 289 289 289 289 289
304 304 304 304 303 303 303 303 303 303 303 303 302 302 302 302 302 303 303 303 302 302 301 301 301 301 301 301 301 301 301 300 300 300 300 300 300 299 299 299 299 300 301 301 301 301 300 299 298 297 296 294 293 292 291 291 290 290 289 289 289 289 289 289 289 289 289 289 289
304 303 303 303 303 303 303 303 302 302 302 302 302 302 302 302 302 302 302 302 301 301 300 300 300 300 300 300 300 300 301 300 300 300 300 300 299 299 298 299 299 299 300 301 301 300 300 299 298 297 295 293 292 292 291 291 290 290 289 289 289 289 289 290 290 290 290 290 290
303 302 302 302 301 301 301 301 301 301 301 301 301 301 301 301 301 301 301 301 300 300 299 299 299 299 299 299 299 300 300 300 300 300 299 299 299 298 298 298 298 299 300 300 300 300 300 299 298 297 295 293 292 291 291 290 290 289 289 289 289 289 290 290 290 291 291 291 292
302 302 302 301 301 301 301 301 301 300 300 300 301 301 301 301 301 301 301 301 300 300 299 299 299 299 299 299 299 299 299 300 300 299 299 298 299 299 298 298 298 299 299 300 300 299 299 298 298 297 295 293 292 291 290 290 289 289 289 289 289 289 289 290 290 291 291 292 293
302 302 301 301 301 301 301 300 300 300 300 300 300 300 301 301 301 301 301 301 300 300 299 299 299 299 299 299 299 298 299 299 299 299 299 299 299 299 299 298 298 298 299 299 299 299 298 298 297 296 295 293 291 291 290 289 289 288 288 288 288 288 289 289 290 291 291 292 292
302 302 302 301 301 301 301 300 300 301 301 301 301 301 301 301 301 301 300 300 300 300 299 299 299 299 299 299 299 298 298 298 299 299 299 299 299 299 299 298 298 298 298 298 299 298 298 297 297 296 294 292 291 291 290 289 288 288 287 288 288 288 288 288 289 290 291 291 291
Wind_Speed
6 6 6 6 5 4 3 3 3 3 3 3 3 3 3 3 3 3 3 3 3 4 5 5 5 4 4 4 5 6 7 7 8 8 9 9 9 9 10 9 8 6 5 8 7 7 7 7 6 5 4 5 5 5 5 5 5 5 5 4 4 4 5 6 6 7 7 7 5
7 7 6 6 5 4 3 3 3 3 2 2 2 3 3 3 3 3 4 4 4 4 4 4 5 4 5 5 6 6 6 7 8 8 9 9 9 10 10 9 8 5 6 8 8 7 7 7 6 5 4 4 5 5 5 5 5 5 5 5 4 4 5 6 6 7 7 7 6
6 6 6 6 5 4 4 3 3 3 2 2 2 3 3 3 2 3 4 5 5 5 4 4 5 5 6 6 5 6 6 6 7 8 8 8 9 9 9 9 7 5 5 8 7 7 6 7 5 5 4 4 5 5 5 4 5 5 5 5 4 4 4 5 6 6 6 5 6
6 6 5 5 6 6 5 4 3 3 2 2 2 3 2 2 2 3 4 6 6 5 4 4 6 6 5 5 5 6 6 6 7 7 8 8 8 9 9 9 7 5 6 7 7 7 7 7 5 4 4 5 5 4 4 4 5 5 4 4 4 4 4 5 5 5 5 5 5
7 6 5 5 6 6 5 4 3 3 2 2 2 2 2 2 2 3 5 6 5 4 4 5 6 6 5 4 5 6 6 6 7 7 7 8 8 8 9 9 7 6 6 8 8 8 8 7 5 4 4 5 4 4 4 5 5 5 4 3 3 4 4 5 5 5 4 5 4
5 4 3 3 4 4 4 3 3 3 2 2 2 2 2 2 3 4 6 6 5 4 5 7 8 6 4 3 5 5 6 6 6 6 6 7 7 8 8 9 7 6 6 9 8 8 8 7 5 4 4 4 4 4 5 6 6 5 4 4 4 4 4 5 4 5 5 5 6
4 3 1 1 2 2 2 2 2 2 2 2 2 3 3 4 5 6 7 6 3 4 5 8 7 5 3 2 3 5 6 5 5 6 6 6 7 7 8 8 7 5 6 9 8 7 7 7 5 4 4 4 4 5 6 6 6 6 5 5 4 4 5 5 5 5 6 8 8
3 2 1 1 1 2 2 3 2 2 2 2 3 4 5 6 7 8 6 3 3 4 6 7 5 3 2 2 4 5 6 6 5 5 5 6 6 7 8 8 7 5 6 10 9 7 6 6 4 4 4 4 4 5 6 7 7 7 7 6 5 4 4 5 5 6 7 9 9
2 2 1 1 1 2 2 3 3 3 3 3 4 5 7 8 8 7 4 2 4 6 7 5 4 2 2 4 6 7 6 6 6 6 5 5 6 7 7 7 6 5 6 9 8 8 6 5 4 4 4 4 5 6 7 9 9 9 8 7 6 5 5 5 6 7 8 9 9
3 2 1 0 1 2 2 3 3 4 4 4 5 6 7 8 6 4 3 3 5 6 6 4 3 2 3 5 7 7 6 5 5 6 6 6 6 6 6 6 6 5 6 8 7 7 6 5 5 5 5 5 6 8 9 10 10 9 8 6 7 7 8 7 8 8 9 9 9
3 3 2 1 1 1 2 3 3 3 4 4 6 6 5 4 3 2 3 5 6 7 6 4 3 3 4 5 6 6 5 4 5 5 6 6 6 6 6 6 6 6 7 7 7 6 5 5 6 7 8 7 8 8 9 10 10 10 9 7 8 9 9 9 8 8 8 9 9
3 3 3 3 2 1 1 1 2 3 4 5 5 4 3 2 3 4 5 7 7 6 4 3 4 4 5 5 4 3 2 3 4 5 5 6 6 6 6 5 6 7 8 8 6 5 5 6 8 9 9 8 7 8 9 10 10 10 10 9 9 10 10 10 9 8 8 9 9
2 2 2 2 2 1 1 1 2 3 3 4 3 2 3 3 5 6 7 7 6 4 3 2 3 4 4 4 2 2 2 3 4 5 5 6 6 6 5 5 6 8 8 7 6 6 7 8 9 10 10 9 7 7 8 10 10 10 10 10 10 10 10 10 9 9 9 9 9
1 1 1 0 1 1 1 2 1 1 2 2 3 3 3 4 6 7 7 6 4 3 2 2 2 2 2 2 1 2 3 4 4 5 6 6 5 5 5 5 7 8 7 6 7 8 8 9 10 11 11 10 9 8 8 9 9 9 10 10 10 10 10 10 10 10 10 10 10
2 2 1 1 1 1 1 1 1 2 2 3 3 4 4 5 6 6 6 4 3 3 2 2 2 2 1 1 1 3 4 5 5 5 5 5 4 4 4 5 7 7 7 6 7 9 10 10 11 11 11 11 9 9 8 8 8 8 9 9 10 10 10 10 10 10 10 10 10
3 3 3 3 3 3 3 3 3 3 3 3 4 4 5 5 6 5 4 3 3 3 3 3 3 2 1 2 3 4 5 4 4 5 4 3 3 3 4 6 7 7 7 7 8 10 10 10 11 11 11 11 10 9 8 8 8 8 8 9 9 9 9 9 9 9 9 10 10
3 3 3 4 4 4 4 3 3 3 4 5 5 6 6 5 4 3 3 3 3 4 4 4 3 3 2 3 3 4 4 3 4 4 3 3 3 3 5 7 7 7 8 8 10 11 11 10 10 10 11 11 10 9 9 9 8 9 9 9 9 9 9 9 9 9 9 10 10
2 2 2 1 1 2 3 4 4 5 5 6 6 6 5 4 3 3 2 3 3 4 4 3 2 2 2 3 3 3 3 3 3 3 3 3 4 5 6 7 8 8 8 10 12 12 12 11 10 10 10 10 10 9 9 9 9 10 10 10 10 10 9 9 9 9 9 10 10
3 3 2 2 2 3 3 4 5 6 6 6 6 5 4 2 2 2 2 3 3 3 2 1 1 1 2 2 2 2 3 4 4 4 4 5 6 7 8 8 8 9 10 12 13 12 12 11 11 11 11 11 10 10 10 10 10 11 11 11 11 11 10 10 10 9 9 10 10
4 4 3 3 3 3 3 4 5 5 5 5 4 4 3 2 2 2 2 2 2 1 1 2 2 1 1 1 2 3 4 4 5 5 6 7 7 8 9 9 10 11 12 12 12 12 12 12 11 11 12 12 12 12 12 12 12 12 12 12 12 12 12 11 11 11 11 11 10
6 5 5 4 4 3 3 2 2 3 3 3 3 3 3 2 2 2 2 3 2 2 2 3 2 1 1 2 4 5 5 5 6 7 7 8 8 9 10 11 12 12 11 11 12 12 12 12 12 12 12 12 12 13 13 13 14 14 14 13 13 13 13 12 12 12 12 11 11
6 6 6 6 5 5 4 3 2 3 3 3 4 5 5 5 4 4 4 4 4 3 3 3 3 3 3 4 5 6 5 5 6 7 7 8 9 10 11 12 12 12 11 11 12 12 13 12 12 12 12 12 13 14 14 15 15 15 15 14 14 13 13 12 12 12 12 12 12
6 6 7 6 7 6 5 4 4 5 5 6 7 7 7 6 5 5 5 5 4 3 2 3 3 3 4 5 6 6 7 7 8 8 9 10 11 12 12 12 12 12 11 10 11 12 12 12 12 12 12 13 14 15 15 16 15 15 15 15 14 14 13 12 12 12 12 12 12
6 6 6 5 6 6 6 5 6 6 6 7 7 7 7 7 7 6 6 5 3 2 3 4 4 4 4 5 7 8 10 12 12 12 12 12 12 12 12 11 11 10 9 9 10 11 11 10 10 11 12 12 13 14 15 15 14 14 14 15 14 14 13 13 13 14 14 14 13
6 6 6 5 6 6 6 6 7 7 6 6 6 6 7 7 7 6 4 2 2 3 5 5 5 5 6 8 9 11 13 13 13 13 13 13 13 12 11 10 9 8 8 9 14 15 15 13 11 11 11 12 13 13 13 14 14 14 14 14 14 14 15 15 15 15 15 15 13
6 6 6 6 6 6 6 7 7 7 7 7 6 6 6 5 4 2 3 6 7 8 8 8 9 9 10 11 12 13 13 12 12 12 13 13 13 12 11 10 8 7 8 12 17 19 19 18 16 14 12 11 12 13 13 13 13 14 14 14 14 15 15 15 15 15 14 14 13
6 6 6 6 6 6 6 6 7 7 7 7 6 5 4 6 8 10 12 13 13 12 12 12 12 12 13 12 13 13 13 12 12 13 13 13 13 13 12 10 8 8 11 16 20 21 22 22 21 18 15 12 12 12 12 12 13 14 14 14 14 15 16 16 15 14 12 12 12
4 4 4 4 4 4 4 4 5 5 5 5 5 7 10 13 14 14 14 13 13 13 12 12 12 11 11 11 13 13 13 13 12 12 13 14 14 13 12 11 10 11 15 20 22 23 23 23 23 21 19 15 13 12 12 12 12 12 13 13 14 15 16 15 13 12 11 10 10
5 4 4 4 4 3 2 2 2 2 4 7 11 13 14 14 14 14 14 13 13 13 11 10 10 9 10 11 12 13 14 13 13 13 13 15 15 14 14 13 13 16 19 23 24 24 24 24 23 22 20 16 12 9 9 10 10 11 11 11 12 12 13 13 12 11 10 10 10
12 11 10 10 10 10 10 10 10 11 11 11 13 14 14 14 14 14 14 14 14 12 11 10 10 11 12 12 12 12 13 13 13 13 15 16 16 15 14 14 14 16 20 24 24 24 24 24 23 22 21 18 14 11 9 9 10 10 10 10 11 12 13 13 12 11 9 9 10
14 14 14 14 14 14 14 14 14 13 13 12 13 14 14 14 14 14 14 14 13 13 13 13 14 14 14 13 13 13 13 13 13 14 15 16 17 16 16 15 15 17 20 24 25 25 24 24 23 23 21 19 15 12 11 12 12 12 12 12 12 13 13 12 11 10 9 9 10
13 14 14 14 14 14 13 13 13 14 14 14 14 14 14 14 14 13 13 13 13 14 14 15 15 15 15 14 14 14 14 14 14 15 15 16 17 17 16 16 16 18 21 25 25 26 25 25 25 25 24 22 18 15 14 14 14 13 13 14 14 14 13 11 10 10 10 10 10
13 14 14 14 14 14 14 14 14 14 14 15 14 14 14 14 13 13 13 13 13 14 14 15 15 15 15 15 15 15 15 15 15 16 17 17 17 17 16 15 15 18 22 26 26 26 26 26 26 26 25 23 18 16 15 14 13 13 13 14 14 14 13 12 11 11 11 11 10
13 13 14 14 14 14 14 14 14 14 15 15 15 14 14 13 13 13 13 12 12 13 13 13 14 14 14 14 14 15 14 14 15 15 16 16 17 16 15 13 13 17 23 26 26 27 27 27 27 27 25 22 17 15 15 15 13 13 14 14 14 13 13 12 12 12 12 12 11
13 13 14 14 13 13 14 14 14 14 15 15 15 15 14 14 14 13 13 13 13 13 13 13 13 13 13 14 14 15 15 15 15 15 15 16 17 17 17 15 15 19 24 26 26 27 27 27 27 26 23 19 15 14 14 15 15 15 15 15 14 14 14 13 13 12 12 11 11
13 14 14 14 14 14 14 14 14 15 15 15 15 15 14 14 14 13 13 13 14 14 14 14 14 14 14 14 14 14 15 15 15 15 15 16 17 17 17 17 18 20 24 25 26 26 26 27 26 24 21 16 13 12 13 13 13 14 15 15 15 14 13 12 12 11 10 10 10
14 14 14 14 14 14 14 14 14 15 15 15 15 14 14 14 14 13 13 13 15 15 15 15 15 15 15 15 14 14 14 14 15 15 15 15 16 16 17 16 17 19 22 24 25 25 25 25 24 22 18 14 12 12 12 11 11 12 14 14 13 12 11 10 9 9 9 9 9
13 14 14 14 14 14 14 14 15 15 15 15 14 14 14 13 13 13 13 13 14 15 15 15 16 16 15 15 15 15 15 15 15 15 15 15 15 16 16 16 16 17 20 23 24 24 23 23 23 20 17 13 12 11 11 10 11 11 11 11 10 10 9 7 7 7 9 10 11
13 13 14 14 14 14 15 15 15 15 15 14 14 14 14 13 12 12 13 13 14 14 15 15 16 15 15 16 15 16 16 16 16 16 16 15 15 16 16 16 16 17 18 22 23 23 22 22 22 20 18 14 12 10 10 10 11 11 11 10 9 9 8 7 6 7 8 10 13
13 13 14 14 14 14 15 15 15 14 14 14 14 14 14 13 13 13 13 13 14 14 14 15 15 15 15 15 15 16 16 16 16 16 16 16 17 17 18 17 16 17 18 21 22 22 22 22 21 20 17 13 11 10 9 10 11 11 10 8 8 7 7 6 6 6 7 8 10
12 13 14 14 14 14 15 15 14 14 13 14 14 13 13 13 13 13 13 13 13 13 13 13 15 15 15 14 15 16 17 17 16 16 16 17 17 17 17 16 16 16 17 19 21 22 22 21 21 19 16 12 10 9 9 9 10 11 10 8 7 7 6 6 6 6 6 6 7
Wind_Direction
273 268 262 256 243 232 224 218 211 206 204 205 211 213 214 217 231 245 255 263 267 268 266 258 246 232 216 210 209 206 202 198 204 212 218 220 223 228 233 239 237 218 184 176 176 163 150 148 148 150 153 158 161 163 165 166 167 168 167 160 149 141 139 140 138 136 133 130 128
277 268 258 250 242 232 221 213 206 202 200 202 210 213 215 215 228 245 256 261 264 266 263 260 251 238 223 213 212 210 205 199 202 210 216 220 223 226 231 237 235 213 178 173 177 166 150 148 148 150 153 156 158 160 162 163 160 158 155 147 139 135 135 135 134 131 128 126 126
282 271 259 248 236 224 214 208 201 196 196 204 207 209 208 211 228 245 255 259 261 261 259 257 252 241 228 215 215 215 211 203 202 207 214 219 222 225 229 235 232 210 176 169 172 163 150 149 149 150 153 156 158 158 156 152 150 149 145 139 134 132 132 131 129 126 125 125 127
283 271 258 245 229 218 207 198 191 188 193 206 206 201 199 208 229 247 256 259 259 258 256 254 254 246 230 212 214 219 220 211 204 206 212 217 220 223 227 232 230 208 178 173 167 157 149 149 149 151 153 153 152 149 146 143 143 141 138 134 130 128 127 125 124 124 124 125 125
285 269 251 238 222 210 198 184 180 180 187 200 204 199 195 207 232 248 254 256 254 256 257 257 257 249 230 203 207 218 224 220 211 209 211 214 217 221 225 229 227 205 180 181 172 159 150 150 151 152 151 149 145 140 135 133 133 132 129 123 121 121 121 121 122 123 124 123 122
298 282 253 232 212 199 186 173 173 174 179 194 203 201 202 217 232 241 246 249 253 259 262 260 257 251 232 196 201 213 223 222 215 213 213 213 214 218 223 228 226 204 178 183 180 165 151 150 151 150 145 136 126 124 126 128 128 125 120 114 114 115 118 122 123 123 122 121 120
328 334 333 194 184 178 173 172 173 172 178 197 206 210 216 225 234 239 243 248 259 265 262 256 251 244 228 199 206 214 218 216 215 217 218 215 213 214 219 224 222 200 175 178 184 173 156 149 148 142 130 119 117 121 124 126 125 121 116 111 111 115 120 123 123 122 121 121 121
355 9 30 98 155 171 179 181 179 181 188 200 209 217 224 231 236 240 244 255 266 262 257 252 241 226 206 213 225 222 215 206 208 215 219 218 212 212 216 220 217 196 172 173 179 173 158 146 139 126 116 113 118 122 124 122 119 116 113 111 111 114 119 122 121 121 122 122 123
10 25 46 112 164 186 194 194 191 194 200 208 216 223 229 234 237 242 249 264 259 256 254 250 239 215 200 221 232 228 217 198 200 208 217 220 213 211 211 215 211 192 172 169 169 162 150 135 120 111 109 113 120 122 121 118 115 113 111 111 113 115 116 117 119 122 123 124 125
6 17 31 92 193 206 208 206 201 201 207 217 225 230 234 239 242 246 252 255 254 251 249 247 249 234 222 227 235 232 220 197 194 201 210 219 214 210 208 209 201 185 172 168 161 151 137 119 109 105 107 111 117 118 117 115 114 113 113 115 119 120 119 119 121 124 126 126 126
360 7 9 357 269 222 212 209 202 206 215 229 236 240 245 254 267 268 257 249 250 246 241 240 247 244 238 237 239 236 225 202 192 196 205 215 215 211 206 203 191 179 170 166 156 142 126 111 108 108 109 110 113 115 115 115 114 115 117 122 125 124 123 123 125 126 127 127 126
2 8 8 350 322 283 231 212 207 216 228 240 248 259 284 325 313 286 263 250 245 241 235 228 233 237 238 240 242 241 231 214 198 198 203 213 214 211 206 199 185 173 166 160 149 132 117 112 112 111 109 107 109 113 116 117 117 119 122 128 128 127 127 128 128 128 128 128 126
10 22 19 354 325 303 272 241 227 228 236 250 270 301 329 328 299 280 265 251 244 244 246 243 237 235 233 234 235 238 237 234 215 207 205 211 212 210 203 193 177 166 158 149 135 121 114 114 114 112 109 107 108 113 117 119 121 124 128 130 129 129 129 130 130 130 128 127 123
12 32 37 8 286 266 255 250 245 252 275 297 315 323 319 299 281 271 264 253 254 265 280 279 258 241 228 219 218 229 235 235 221 210 205 207 209 205 195 181 168 159 149 132 119 113 112 114 113 112 110 109 110 113 116 119 123 127 130 131 129 129 130 130 130 129 127 124 119
355 5 13 11 2 350 338 334 349 348 339 327 317 305 289 276 270 268 267 271 284 292 290 270 243 226 213 208 230 238 237 231 213 201 196 200 203 193 174 157 154 151 144 125 111 108 110 112 112 112 112 112 112 113 114 117 121 125 127 127 126 127 127 127 127 126 124 122 117
346 352 2 11 10 7 4 358 351 337 322 307 291 279 270 265 263 262 266 280 289 285 267 235 212 198 196 223 242 245 239 218 193 182 180 186 181 159 140 135 143 149 150 138 114 106 106 110 112 113 114 114 113 113 113 115 117 118 118 118 119 120 120 121 120 120 119 116 113
340 350 3 11 3 356 347 333 318 302 292 284 276 270 265 260 256 254 255 258 258 252 241 224 198 183 189 222 240 240 225 190 168 163 164 163 145 129 124 126 142 152 152 137 113 105 105 108 111 113 113 112 112 112 113 113 112 110 109 107 108 108 109 110 110 110 110 108 107
330 336 347 354 325 306 296 292 286 280 278 276 274 269 265 259 262 265 261 249 241 234 228 217 183 172 185 218 224 211 184 159 153 153 153 144 139 134 131 133 147 148 138 120 108 105 106 108 109 110 109 109 109 110 110 110 107 104 101 99 97 97 97 98 98 100 101 102 101
331 322 307 278 253 249 255 265 271 273 275 276 274 271 268 269 281 284 274 255 241 228 209 144 119 144 183 207 186 163 144 140 148 150 149 146 147 144 141 139 139 130 118 109 107 106 107 106 107 108 108 108 109 109 107 105 101 97 94 91 90 88 88 87 87 89 90 92 92
346 332 317 302 288 274 263 260 264 270 277 282 278 275 275 283 298 297 286 270 260 232 102 81 78 102 161 153 127 116 118 135 147 150 150 151 149 142 133 123 116 109 105 106 107 108 107 106 106 108 109 110 110 107 104 99 94 90 87 85 82 80 79 78 78 77 77 78 80
359 351 342 332 323 316 307 283 276 287 299 302 297 302 316 343 351 345 334 328 346 20 53 67 57 54 74 90 81 91 107 131 141 144 144 143 131 118 108 102 99 98 99 103 106 107 107 107 108 109 109 110 107 104 100 96 91 87 84 81 78 76 75 75 75 74 73 73 73
5 4 3 0 1 2 3 3 1 2 1 356 356 358 0 4 1 353 345 342 349 7 39 61 47 40 47 60 68 82 102 117 121 122 120 116 106 98 93 91 92 93 96 100 103 105 105 105 106 107 107 105 103 100 98 96 92 89 85 83 81 79 77 75 75 75 74 73 72
4 7 8 9 11 12 11 8 9 11 13 12 9 5 1 355 349 342 336 333 338 357 38 67 54 46 48 59 72 84 92 89 86 85 86 89 90 89 88 87 88 91 94 98 101 103 103 103 102 102 101 100 98 97 97 96 95 92 90 87 85 82 79 77 77 76 75 73 71
359 3 5 7 7 5 3 2 5 10 13 11 4 356 347 338 332 326 321 318 328 5 50 72 75 77 80 84 86 85 81 75 72 71 73 78 83 85 85 84 84 87 90 95 100 102 103 103 101 99 97 96 95 95 95 96 95 95 94 92 89 85 81 77 76 75 74 72 71
350 354 358 1 2 1 360 358 0 3 4 0 351 340 329 319 309 303 301 314 22 60 70 79 87 92 94 92 86 80 76 73 71 70 71 74 77 79 80 80 79 81 86 93 99 101 102 102 102 100 98 96 96 95 95 94 95 95 95 95 92 88 83 78 75 74 74 74 74
341 346 350 353 356 358 357 353 351 349 347 341 331 321 312 309 309 342 55 74 76 75 76 80 79 80 80 81 78 76 74 74 72 71 71 73 74 75 76 77 77 80 87 95 99 99 99 99 99 99 99 98 97 96 94 93 93 94 94 93 91 89 85 80 77 75 75 77 79
336 340 342 343 348 350 349 343 339 335 331 324 322 332 4 36 52 61 65 69 71 71 72 72 72 72 73 73 73 74 74 75 74 73 73 73 74 75 76 77 78 83 91 96 97 97 96 96 96 97 97 96 95 95 95 95 94 93 92 90 89 88 87 85 83 81 80 81 82
338 336 335 336 338 335 328 319 317 318 323 335 20 47 55 56 58 61 63 64 64 65 66 66 68 69 70 70 72 73 75 76 76 76 75 75 75 76 77 78 80 86 92 95 95 95 95 95 95 95 94 94 93 94 95 97 96 94 92 91 91 91 91 90 89 88 87 86 83
21 17 13 14 13 10 7 11 28 38 47 55 63 64 62 60 61 62 64 64 63 64 65 66 68 69 71 72 73 74 75 76 78 80 79 78 77 77 77 79 82 87 91 93 94 94 94 94 93 93 92 92 92 92 93 94 93 91 89 88 88 90 91 93 92 91 89 87 84
40 41 42 43 44 46 48 53 58 62 64 65 65 65 65 63 62 63 64 65 66 67 69 71 73 73 73 75 75 76 77 78 80 81 82 81 80 79 79 80 83 87 91 92 93 93 93 93 92 92 91 91 89 87 83 81 80 79 77 77 77 79 81 84 85 86 86 85 83
43 45 47 48 49 50 51 52 54 56 59 62 64 65 66 66 65 65 66 67 69 71 73 75 75 75 75 75 76 77 78 79 80 81 83 84 83 82 82 82 84 88 91 92 92 92 92 91 90 89 88 86 83 79 76 74 73 73 72 72 72 73 74 76 76 77 78 78 79
43 46 48 49 49 50 51 52 54 56 58 61 63 64 66 66 66 67 67 69 71 72 73 74 76 76 77 77 77 78 79 80 81 83 84 86 86 86 85 84 85 88 90 91 91 90 89 88 87 86 84 82 81 79 78 77 76 75 73 72 70 70 71 73 73 73 71 71 73
44 47 49 50 50 50 51 52 55 57 58 59 61 62 64 66 66 67 67 68 70 71 72 73 75 76 77 78 79 79 80 81 82 84 86 87 88 88 87 85 86 89 90 91 90 89 88 87 85 84 83 81 80 79 79 79 78 76 74 71 69 68 69 70 70 69 68 67 69
44 47 50 51 52 52 53 54 56 57 59 59 59 60 61 62 63 65 65 66 68 69 69 70 72 74 75 77 79 80 81 82 83 84 86 88 88 88 87 85 87 89 90 90 89 89 87 86 85 84 83 81 80 79 78 78 77 76 74 72 69 67 65 64 64 63 63 63 65
43 47 49 51 52 53 54 55 57 58 58 59 58 58 58 59 60 61 63 65 67 67 67 67 69 70 71 72 75 78 80 82 83 83 85 86 87 87 87 87 88 90 90 90 90 89 88 87 86 85 84 82 81 79 79 78 77 76 74 72 69 65 62 60 59 59 58 58 61
43 47 49 51 52 53 54 55 57 57 58 57 57 56 56 57 58 59 62 65 66 67 66 66 66 67 68 69 71 73 76 79 81 82 83 85 86 87 88 88 89 90 90 90 90 90 90 89 88 87 85 83 82 81 80 79 78 76 75 73 70 67 64 63 63 62 60 60 61
43 47 50 52 52 52 53 54 56 56 57 56 56 56 56 57 58 58 60 64 66 67 67 66 66 66 67 68 69 69 71 75 78 80 81 82 84 87 88 89 89 88 88 89 89 89 90 90 90 89 88 86 85 84 83 82 81 79 77 76 74 72 70 70 69 68 68 67 67
44 47 50 53 53 53 54 54 55 56 56 56 56 56 57 58 58 58 59 62 66 68 68 68 67 67 68 69 70 70 69 71 74 76 78 78 81 84 86 87 86 85 86 87 87 88 90 91 91 91 91 90 89 88 87 86 85 83 81 80 79 76 73 72 71 70 71 73 74
46 48 52 54 55 56 56 56 56 56 57 58 58 57 57 59 59 60 61 63 66 68 69 69 69 69 70 70 71 70 69 69 71 73 75 76 77 80 82 83 82 82 84 86 87 88 89 90 91 92 92 92 91 91 91 91 89 87 85 84 82 79 75 72 72 72 74 77 80
48 51 53 56 57 57 58 58 57 57 58 59 59 59 60 61 62 63 64 65 66 68 69 70 70 70 70 71 71 71 70 69 69 71 73 75 75 76 77 78 79 81 82 85 87 88 89 90 91 91 91 90 91 92 94 94 93 91 89 87 86 84 81 76 77 78 80 82 85
50 53 55 56 57 58 59 59 59 59 59 60 61 62 63 64 65 66 66 67 67 68 69 70 70 70 70 70 70 71 70 70 69 70 72 74 74 74 74 76 78 80 82 84 86 88 89 89 89 89 89 89 89 91 93 97 97 96 95 93 92 92 91 87 84 82 81 80 84